Cloud_Cover
86 100 28 24 34 21 70 6 99 97 76 100 100 100 86 88 7 9 43 21 4 63 100 100 100 100 100 100 100 100 100 100 100 100 100 100 100 97 93 100 100 100 100
88 100 7 4 12 56 49 0 55 90 100 100 100 92 11 74 95 4 33 94 34 75 62 100 100 58 88 82 92 23 99 100 100 100 100 100 100 100 100 100 100 100 100
100 81 88 64 10 63 20 6 86 100 59 95 99 34 84 95 100 100 100 100 100 100 100 100 83 59 57 88 78 83 23 71 99 87 100 100 100 100 100 100 100 100 100
100 100 99 69 18 5 32 32 29 100 47 0 98 82 2 2 100 100 100 100 98 93 98 94 82 65 92 94 40 68 95 98 98 100 100 100 100 100 100 100 100 100 100
99 53 88 92 96 56 54 32 23 33 99 18 8 7 4 4 96 100 100 99 64 81 95 2 2 29 32 34 57 55 84 96 100 100 100 100 100 100 100 100 100 100 100
38 53 97 100 99 86 100 42 28 98 56 5 5 0 0 0 2 96 100 100 100 100 100 76 31 0 0 0 0 6 14 34 39 70 100 100 100 100 100 100 100 100 100
42 29 46 100 74 79 100 100 60 81 100 23 20 8 0 0 0 58 100 100 100 90 100 98 66 61 36 1 0 4 5 7 24 89 52 96 97 100 100 98 100 100 100
50 42 8 88 98 88 90 94 76 62 100 100 88 2 2 0 0 0 78 100 81 18 38 43 0 0 0 0 1 5 5 5 5 6 25 37 14 19 41 22 14 11 57
100 81 90 63 25 44 95 100 100 10 100 100 96 86 5 5 4 5 7 5 6 5 3 1 4 2 3 1 5 5 5 5 5 5 5 5 5 5 5 14 35 50 83
100 100 100 86 100 98 100 100 100 76 100 100 100 5 5 31 12 5 10 38 91 92 41 5 5 5 5 18 78 18 5 5 0 4 5 5 5 3 0 3 1 0 18
100 100 100 100 100 100 100 100 100 100 97 100 89 8 14 92 6 5 10 27 24 74 6 5 5 5 5 20 11 51 19 5 1 36 70 6 9 4 20 77 15 2 1
100 100 100 100 100 100 100 100 100 100 96 100 94 100 100 94 100 100 100 100 100 52 39 53 71 81 10 25 83 88 88 48 6 0 0 4 8 2 91 63 18 4 0
100 100 100 100 100 100 100 100 100 100 100 100 100 100 100 100 100 100 100 95 99 100 96 100 94 86 31 8 100 9 0 0 0 0 0 0 0 0 5 5 5 31 5
100 100 100 100 100 100 100 100 100 100 100 100 100 100 100 100 100 100 94 100 99 83 97 97 93 96 100 85 88 0 0 0 0 0 0 1 5 10 55 88 38 69 100
100 100 100 100 92 98 89 100 100 100 100 100 100 100 100 100 100 88 100 98 37 90 100 48 91 77 100 24 0 0 0 0 0 2 5 5 73 100 100 100 95 40 48
100 100 100 100 96 84 64 70 100 85 66 94 100 100 100 100 100 100 98 96 98 47 51 3 0 2 0 1 2 3 2 5 4 23 16 28 99 100 100 100 92 100 65
40 100 100 100 100 100 100 100 100 100 100 96 100 98 99 100 100 100 100 100 100 83 14 0 5 5 5 2 4 5 14 76 69 100 100 100 100 100 100 100 100 91 98
51 25 9 42 59 83 78 58 80 41 0 0 0 0 0 0 0 0 0 5 3 4 5 5 5 5 5 5 10 31 23 99 100 100 100 100 100 100 100 100 100 100 100
5 5 5 5 5 5 5 0 0 0 0 0 0 0 0 1 5 5 5 5 5 5 5 5 5 11 90 87 99 99 100 100 100 100 100 100 100 100 100 100 100 100 100
81 83 69 7 5 4 1 4 4 0 0 0 2 0 0 0 1 2 5 5 5 5 5 5 5 38 5 37 42 100 99 100 100 100 100 100 100 100 100 100 100 100 100
100 100 93 72 14 6 5 5 0 0 0 0 0 0 0 0 2 2 4 0 2 5 5 5 5 5 5 6 12 68 72 92 100 100 100 100 100 100 100 100 100 100 100
97 61 42 92 52 9 3 2 7 5 5 5 4 1 1 0 0 0 0 2 1 0 5 5 5 5 26 96 100 95 100 95 100 100 100 100 100 100 100 100 100 100 100
74 61 43 37 27 25 36 90 100 99 86 99 100 46 5 5 3 2 3 4 5 5 5 12 88 51 43 93 100 100 100 100 100 100 100 100 100 100 100 100 100 100 100
96 92 100 100 96 97 91 99 53 5 68 13 14 97 81 93 94 100 95 92 88 99 97 98 69 33 48 75 100 97 99 72 98 100 100 100 100 100 100 100 100 100 100
81 14 78 64 100 76 99 6 10 31 97 58 80 62 6 28 52 43 80 99 95 100 100 100 99 76 55 66 11 19 64 94 99 98 98 100 99 99 100 100 99 100 100
100 100 85 100 100 83 81 91 99 100 79 87 88 87 89 100 96 100 100 35 94 88 89 43 59 95 100 100 100 100 100 86 14 38 58 46 31 35 25 17 22 36 62